This is the latest recevied weather packets stored in our database for station/object SV9TNF-51. If no packets are shown the sender has not sent any weather packets the latest 10 day(s).
| Time | Temp. | Humidity | Pressure | Rain* | Wind** | Luminosity | Snow |
|---|---|---|---|---|---|---|---|
| 1788398941 | 23.89° C | 62% | 1009.8 hPa | 0 mm | 4.02 m/s, 266° | - | - |
| 1788398640 | 23.89° C | 63% | 1009.8 hPa | 0 mm | 4.92 m/s, 347° | - | - |
| 1788398340 | 23.89° C | 65% | 1009.8 hPa | 0 mm | 4.92 m/s, 342° | - | - |
| 1788398040 | 24.44° C | 65% | 1009.8 hPa | 0 mm | 4.47 m/s, 296° | - | - |
| 1788397740 | 23.89° C | 65% | 1009.8 hPa | 0 mm | 4.92 m/s, 335° | - | - |
| 1788397440 | 23.89° C | 65% | 1009.8 hPa | 0 mm | 4.47 m/s, 10° | - | - |
| 1788397140 | 23.89° C | 64% | 1010.5 hPa | 0 mm | 4.47 m/s, 318° | - | - |
| 1788396840 | 24.44° C | 67% | 1010.5 hPa | 0 mm | 4.47 m/s, 32° | - | - |
| 1788396539 | 24.44° C | 66% | 1010.5 hPa | 0 mm | 4.92 m/s, 310° | - | - |
| 1788396239 | 24.44° C | 63% | 1010.5 hPa | 0 mm | 3.13 m/s, 333° | - | - |
| 1788395939 | 24.44° C | 59% | 1010.5 hPa | 0 mm | 3.58 m/s, 345° | - | - |
| 1788395639 | 24.44° C | 55% | 1010.5 hPa | 0 mm | 3.13 m/s, 165° | - | - |
| 1788395339 | 24.44° C | 50% | 1010.5 hPa | 0 mm | 2.68 m/s, 104° | - | - |
| 1788395039 | 23.89° C | 47% | 1010.5 hPa | 0 mm | 3.13 m/s, 179° | - | - |
| 1788394739 | 23.89° C | 46% | 1010.5 hPa | 0 mm | 3.13 m/s, 174° | - | - |
| 1788394439 | 23.89° C | 47% | 1010.5 hPa | 0 mm | 3.58 m/s, 330° | - | - |
| 1788394139 | 23.89° C | 49% | 1010.5 hPa | 0 mm | 3.58 m/s, 339° | - | - |
| 1788393838 | 23.89° C | 49% | 1010.5 hPa | 0 mm | 4.02 m/s, 356° | - | - |
| 1788393539 | 23.89° C | 51% | 1010.5 hPa | 0 mm | 4.92 m/s, 303° | - | - |
| 1788393239 | 24.44° C | 52% | 1010.5 hPa | 0 mm | 4.02 m/s, 335° | - | - |
| 1788392938 | 24.44° C | 48% | 1010.5 hPa | 0 mm | 4.02 m/s, 0° | - | - |
| 1788392638 | 24.44° C | 50% | 1010.5 hPa | 0 mm | 4.92 m/s, 337° | - | - |
| 1788392338 | 24.44° C | 52% | 1010.5 hPa | 0 mm | 4.92 m/s, 324° | - | - |
| 1788392038 | 24.44° C | 52% | 1010.5 hPa | 0 mm | 6.26 m/s, 337° | - | - |
| 1788391738 | 24.44° C | 48% | 1010.5 hPa | 0 mm | 5.36 m/s, 356° | - | - |
* Rain latest hour (hover to see other rain measurements)
** Current wind speed in m/s (hover to see current wind gust speed)